Location: Willingham
(52.3167°N, 0.0667°E)
Time: 04:33:34
(UTC+00:00)

Cosmos 2150 Rocket - Pass Details

Date: 19 May 2025
Orbit: 745 x 804 km, 74.0° (Epoch: 13 June)

Event Time Altitude Azimuth Distance (km) Brightness Sun altitude
Rises 21:31:59 0° 334° (NNW) 3,291 9.3 -11.2°
Reaches altitude 10° 21:34:22 10° 334° (NNW) 2,366 8.1 -11.4°
Maximum altitude 21:39:47 90° 277° (W) 805 4.1 -11.8°
Enters shadow 21:44:06 17° 157° (SSE) 1,952 5.5 -12.2°
